RH
8 7 7 7 6 6 6 7 9 11 13 14 14 14 13 11 10 9 9 9 9 9 9 9 8 8 8 7 6 7 9 14 31 57 82 98 101 100 101 101 101 101 100 100 99 98 97 92 86 82 78 74 69 66 62 58 55 51 48 46 42 36 30 23 19 17 19 20 17 24 37 42 55 75 87 95 95 91 90 78 65 67 68 63 58
8 7 7 6 6 7 8 9 12 15 16 16 16 13 12 11 10 10 10 10 10 10 10 10 9 8 8 7 8 12 20 36 63 88 98 100 99 100 101 102 102 101 99 98 98 98 97 91 85 82 78 74 70 66 61 57 54 52 50 47 38 30 25 19 22 24 23 28 41 64 84 87 90 99 98 97 100 100 101 95 87 90 92 88 87
7 7 7 7 8 9 12 15 17 19 18 17 16 14 13 12 11 12 11 11 12 11 11 10 9 9 7 8 17 29 46 71 92 100 100 100 100 100 101 102 102 101 99 98 98 97 96 90 85 81 76 73 68 64 61 57 56 54 49 41 32 27 25 27 35 34 31 51 78 94 102 101 100 102 98 98 101 99 101 102 97 98 100 98 101
7 8 8 9 12 15 18 21 21 21 20 18 16 15 14 13 14 13 13 13 12 12 12 10 9 9 7 14 35 56 74 92 101 100 99 100 100 99 100 102 102 102 100 98 97 98 95 89 84 80 75 71 68 64 61 58 57 52 41 34 31 28 32 43 46 41 49 79 100 101 101 102 100 100 99 99 100 99 99 101 99 100 102 99 103
8 9 11 13 17 20 22 24 24 23 21 19 17 16 15 16 15 14 14 14 14 13 12 10 9 8 11 29 58 79 91 100 102 100 100 100 100 100 100 101 103 103 101 99 97 96 95 90 84 79 75 72 68 65 62 60 55 44 35 35 36 37 48 58 56 57 73 93 102 100 102 103 99 99 103 100 98 99 99 100 101 100 101 99 103
10 12 14 17 20 24 26 27 26 24 22 20 19 18 17 17 16 16 16 15 14 13 11 10 9 10 25 54 81 95 101 104 102 100 100 100 100 101 100 100 102 103 102 101 99 97 95 90 84 80 76 72 69 66 63 59 46 36 38 42 42 51 64 63 64 80 89 91 98 101 100 102 101 100 103 99 95 98 100 100 101 100 100 100 103
13 14 16 20 24 27 30 30 28 26 24 21 20 19 19 19 17 17 17 15 15 12 10 10 8 19 49 81 97 102 103 104 101 99 101 101 100 101 100 100 101 101 102 102 100 99 97 91 85 81 77 74 71 68 62 50 37 36 48 50 50 67 75 63 67 90 92 84 93 100 99 101 102 99 101 98 93 97 101 100 100 101 100 100 103
14 15 18 23 28 31 34 34 31 29 25 23 22 21 20 19 18 18 17 15 14 10 10 9 9 32 72 99 105 103 102 103 102 100 101 101 101 102 101 101 100 99 101 103 101 101 99 94 87 81 80 78 72 67 55 37 33 48 58 55 62 79 79 64 68 89 95 88 90 97 100 101 99 99 100 98 94 98 101 99 100 102 101 100 104
16 18 21 25 31 35 38 37 33 30 27 24 23 22 21 20 19 18 17 14 12 9 10 8 10 40 82 104 106 102 101 103 103 101 102 101 101 103 102 101 101 100 101 102 103 102 98 94 90 85 83 77 67 59 41 26 44 68 65 60 76 87 77 68 71 79 86 91 92 96 101 100 98 100 100 99 99 100 100 99 100 102 101 101 105
20 21 25 30 34 38 40 39 35 31 28 25 24 23 22 21 19 18 15 13 11 8 9 8 13 44 83 102 104 103 100 102 103 101 102 102 101 102 102 102 102 102 102 101 101 100 97 94 91 85 79 69 60 48 27 32 70 85 66 67 88 90 76 73 78 75 74 84 93 97 101 102 99 100 100 100 100 99 99 100 100 102 102 102 105
24 26 30 33 38 42 43 39 34 31 28 26 25 23 22 21 19 17 14 11 9 8 9 9 16 45 81 97 101 103 102 101 103 103 103 103 102 102 101 100 101 102 102 101 98 95 94 91 85 78 69 59 52 35 22 53 96 88 66 78 95 91 81 80 88 88 80 82 89 94 101 105 100 99 101 99 97 99 100 101 101 102 102 104 104
29 31 34 39 45 47 43 38 34 31 29 26 25 24 22 21 18 15 12 10 9 9 10 10 16 42 77 95 98 102 104 102 102 104 103 103 104 104 101 99 98 97 96 97 94 90 89 84 76 69 60 50 42 26 29 76 108 86 72 90 99 93 90 90 99 104 95 88 88 92 100 105 99 99 102 97 94 98 99 100 103 103 103 105 103
33 36 42 49 52 48 42 37 34 31 28 27 25 24 22 19 15 12 10 9 9 10 12 12 15 32 65 91 98 100 104 104 102 104 105 104 105 105 102 100 96 91 88 90 90 86 81 75 67 59 51 43 32 23 45 93 109 86 80 95 100 97 95 93 101 107 102 97 96 97 101 103 99 101 101 93 91 97 100 101 103 102 103 104 100
40 46 53 56 53 47 41 36 33 31 29 27 25 23 20 16 13 10 9 9 11 12 13 14 14 22 45 75 94 98 100 103 104 104 104 104 104 103 101 98 93 87 85 83 82 79 72 66 60 51 43 36 25 27 63 103 106 89 85 93 100 102 96 90 92 95 97 100 102 102 102 101 100 101 97 91 92 99 102 102 103 104 105 105 103
49 56 59 57 50 44 39 36 33 30 28 26 24 21 17 13 11 10 10 11 12 13 15 16 16 19 30 53 77 91 96 100 103 104 102 102 103 101 98 93 89 85 81 76 73 69 62 57 52 44 37 29 22 39 80 106 102 91 88 93 103 104 94 89 91 93 96 99 101 103 102 100 100 101 97 95 99 103 103 101 104 107 105 104 106
60 63 60 54 46 42 38 35 32 30 28 25 22 17 14 11 10 11 11 13 14 16 17 17 18 19 24 37 56 74 87 93 96 98 98 98 99 97 93 88 85 80 73 67 62 59 54 50 45 38 31 24 25 53 91 104 98 92 90 95 105 104 94 93 99 101 101 101 101 102 101 100 100 100 99 99 102 104 101 101 104 105 104 104 103
67 63 56 49 44 41 37 34 31 29 26 22 18 14 12 11 11 13 14 15 17 17 18 19 20 20 23 31 43 60 75 83 86 89 92 93 93 91 87 83 79 73 66 59 55 52 48 44 38 32 26 22 33 65 93 99 95 93 93 98 105 104 100 100 103 102 101 102 103 102 100 100 100 99 100 100 101 101 100 101 103 102 102 103 101
66 58 52 47 43 39 36 33 31 27 23 19 15 12 11 12 14 15 16 17 18 19 19 19 20 21 23 28 39 52 66 75 79 81 84 87 86 82 81 78 73 67 61 55 51 48 43 37 31 26 23 25 42 72 93 97 94 93 97 101 103 104 105 105 104 101 100 101 102 101 100 100 100 100 101 101 100 100 101 100 99 100 103 102 99
61 54 49 45 42 38 35 32 28 24 19 15 12 12 13 15 16 17 18 19 19 21 21 20 20 22 23 25 34 48 60 69 75 75 76 79 78 74 73 72 68 63 57 51 48 45 39 31 26 23 22 28 49 78 97 98 92 94 102 104 102 105 108 107 103 101 100 101 101 100 100 100 100 101 102 103 104 104 103 99 98 102 105 102 98
56 52 48 44 41 37 34 30 24 19 15 13 13 15 15 17 18 18 19 20 22 24 24 23 21 21 22 24 31 43 56 67 73 74 72 72 71 68 65 63 62 58 52 49 45 40 35 28 23 23 24 29 54 85 102 99 93 98 105 103 101 104 107 105 102 101 101 101 100 100 100 100 101 101 101 104 106 106 103 100 100 104 105 100 98
54 51 47 43 40 36 31 25 19 16 14 14 16 17 18 19 19 19 20 22 25 26 26 26 24 22 22 24 27 36 51 64 72 75 74 70 67 64 59 56 56 53 48 46 42 36 32 26 23 25 23 29 58 91 102 100 100 103 103 101 101 103 103 101 101 101 101 101 100 100 100 100 100 100 102 104 101 98 99 100 102 104 102 99 98
54 50 46 42 38 33 26 20 16 15 16 17 18 19 21 21 20 21 22 23 24 25 25 27 28 24 23 24 25 30 43 57 68 73 73 71 67 62 56 53 51 48 45 42 37 32 28 24 24 25 23 35 70 97 101 101 104 104 102 101 102 102 103 102 100 100 101 101 101 101 100 100 100 101 105 105 98 96 100 102 101 102 101 99 100
53 49 45 40 34 28 22 17 17 18 18 20 21 21 21 21 22 23 23 22 22 21 21 24 28 27 25 25 26 28 34 48 62 68 69 69 65 60 56 52 48 46 43 38 33 29 25 24 25 23 28 53 85 101 102 103 103 101 101 102 101 102 103 102 99 99 101 101 102 102 100 100 101 103 107 106 100 101 104 102 100 103 102 101 102
52 47 42 37 30 23 19 18 19 21 22 23 23 22 21 23 24 24 24 22 20 19 20 24 29 31 29 28 29 29 30 40 54 62 64 65 62 58 55 51 47 44 40 34 30 26 23 24 23 24 43 76 98 102 104 107 103 99 100 101 100 100 100 98 97 98 99 100 102 104 103 102 101 103 104 101 97 101 105 104 103 104 103 102 100
50 45 39 32 25 20 20 21 22 24 26 26 25 23 23 24 26 26 24 23 23 25 28 33 37 38 35 32 32 32 30 35 46 55 59 59 59 57 53 49 46 42 36 31 27 24 24 23 21 33 65 94 102 101 104 105 101 99 101 101 100 98 96 96 96 95 97 101 103 105 104 102 102 102 98 95 95 101 106 107 105 103 102 101 91
48 42 35 27 23 21 22 23 25 27 30 30 27 25 24 26 28 27 24 26 31 37 44 49 50 49 45 39 35 34 32 34 40 48 52 53 53 52 49 46 43 37 32 28 24 23 24 20 26 54 88 102 100 100 102 101 100 100 101 101 99 96 94 94 93 94 100 104 103 103 102 102 102 100 95 94 98 104 106 106 105 103 100 94 79
44 38 30 24 23 23 24 25 27 30 33 32 29 28 28 30 30 28 27 31 39 49 60 65 61 57 53 47 40 37 34 33 35 41 45 47 47 46 44 42 37 32 28 25 23 23 21 21 41 78 101 101 99 101 100 99 100 100 101 102 99 95 94 95 97 100 102 102 101 102 102 102 100 98 97 99 101 102 103 103 103 101 95 83 65
40 32 27 25 25 26 27 29 31 33 35 34 31 31 32 33 33 33 32 34 40 51 64 69 66 63 58 51 45 42 37 34 33 35 39 42 42 41 40 37 32 29 25 22 22 22 19 29 63 95 103 99 100 101 99 100 100 99 100 102 100 98 99 101 103 104 102 100 101 101 100 100 100 100 102 104 103 100 98 99 100 97 86 69 50
35 28 27 27 28 29 31 35 37 37 36 35 34 36 37 35 33 36 40 41 41 48 58 61 59 59 56 50 45 43 38 35 33 32 34 38 38 37 36 33 28 25 23 21 22 22 25 49 85 104 101 98 101 100 99 100 100 100 101 101 101 102 104 104 103 102 100 100 100 100 100 100 100 101 103 105 103 100 98 97 97 90 74 54 37
31 29 30 31 32 33 37 41 43 41 38 35 35 39 44 42 36 38 47 50 46 47 55 58 54 52 52 48 42 39 37 34 33 31 31 34 35 33 30 28 25 23 22 23 25 28 43 74 100 103 99 100 101 99 100 100 99 100 101 100 100 102 102 102 101 101 100 100 100 100 101 100 100 100 101 102 103 101 99 96 91 78 59 41 28
31 31 32 34 36 40 44 48 49 45 40 36 34 37 45 49 49 52 58 59 52 47 51 56 53 49 49 46 41 37 35 31 30 30 29 30 31 30 29 28 29 28 28 31 36 45 65 92 104 100 99 101 100 99 101 100 99 100 100 99 100 100 100 100 101 100 100 100 100 100 100 100 101 101 100 102 103 101 97 92 80 64 47 32 22
34 34 35 38 44 49 53 56 56 49 41 37 36 38 43 47 55 67 76 74 63 51 48 54 56 52 47 44 41 37 34 31 28 27 27 28 28 28 29 32 35 36 38 45 55 69 86 99 102 99 100 100 100 100 100 100 100 100 100 100 101 100 100 100 100 99 100 100 100 100 100 100 99 98 98 100 102 99 92 83 68 51 36 26 22
38 38 40 44 52 59 62 63 62 56 46 39 37 41 44 44 46 60 79 86 79 63 49 46 51 53 49 43 39 37 34 31 28 26 26 29 30 29 31 34 36 41 50 61 74 87 97 101 100 100 100 100 100 100 100 100 100 100 100 100 100 100 100 100 100 100 100 100 100 100 100 99 96 95 96 98 98 95 85 71 55 40 29 24 24
44 45 49 54 61 67 69 68 67 62 53 44 39 41 47 48 43 46 62 79 85 80 66 51 44 47 47 42 38 37 35 32 29 27 28 31 33 34 38 41 42 47 59 72 84 94 100 101 100 100 100 100 100 100 100 100 100 100 100 100 100 100 100 100 100 100 100 100 100 100 100 99 97 95 96 97 94 87 75 58 43 32 26 26 27
51 55 61 66 72 76 76 74 72 69 62 53 45 43 47 51 48 43 48 60 71 77 77 68 56 51 51 47 41 37 36 34 31 28 31 36 38 40 49 58 62 62 67 77 89 98 101 100 100 100 100 100 100 100 100 100 100 100 100 100 100 100 100 99 100 101 100 100 100 100 100 100 99 98 98 96 89 78 63 47 34 28 27 28 28
61 66 72 79 83 85 84 80 76 74 70 62 52 46 48 52 52 46 45 52 59 64 68 70 64 58 55 53 48 42 37 35 33 31 33 41 45 48 57 71 80 81 81 86 94 100 101 100 99 100 100 100 100 100 100 100 100 100 100 100 100 100 100 100 100 100 100 100 100 100 100 100 100 100 98 92 82 69 54 39 30 28 30 32 32
73 78 83 88 91 91 91 88 83 80 78 74 63 53 51 55 57 51 45 48 56 60 63 66 65 61 55 52 50 46 41 36 35 35 37 44 53 60 66 74 82 87 90 94 99 101 100 100 100 100 100 100 100 100 100 100 100 100 100 100 100 99 100 100 100 100 100 100 100 100 101 100 100 99 95 87 76 63 48 35 29 30 33 36 36
93 96 96 97 98 97 97 95 92 87 85 83 77 65 57 58 62 59 51 48 52 57 60 62 64 63 60 54 49 48 44 38 37 39 44 50 61 71 76 78 83 89 94 98 101 101 100 100 100 100 100 100 100 100 100 99 100 100 100 99 100 100 100 100 100 100 100 100 99 99 99 99 98 97 92 84 72 57 42 32 31 33 35 37 39
107 108 107 107 107 107 105 102 99 95 91 90 87 78 67 63 66 65 59 53 52 55 58 60 61 62 62 58 53 48 45 39 37 42 52 60 68 78 84 85 86 92 98 100 101 100 100 100 100 100 100 100 100 100 100 100 99 100 100 100 100 100 100 100 100 100 100 100 99 98 97 97 97 96 91 80 64 46 34 30 32 35 36 39 42
103 103 104 105 106 108 109 107 104 101 97 95 94 89 78 69 69 70 65 59 56 56 57 60 62 62 61 60 56 50 46 41 37 42 54 66 73 81 90 92 93 97 101 101 100 100 100 100 100 100 100 100 100 100 100 100 100 100 100 100 100 100 100 100 100 100 100 100 100 100 99 98 96 93 85 71 52 36 30 30 32 36 39 43 47
100 100 101 101 101 103 104 104 104 105 103 100 99 97 89 78 72 73 71 64 60 59 58 58 61 62 62 61 59 54 48 44 39 39 51 67 77 83 91 97 99 101 101 100 99 100 100 99 100 100 100 100 100 100 100 100 100 100 100 100 100 100 100 100 100 100 100 100 100 101 101 100 95 88 77 61 42 31 28 28 31 36 42 47 51
100 100 102 103 102 102 102 102 103 104 105 103 102 102 99 88 79 76 76 70 64 63 64 62 61 62 62 62 61 57 52 47 42 38 45 62 77 86 94 101 102 101 101 100 100 100 100 100 100 100 100 100 100 100 100 100 100 100 100 100 100 100 100 100 100 100 100 99 100 101 101 100 95 87 74 56 39 31 29 27 29 36 44 49 55
101 101 103 104 104 102 101 101 101 102 104 104 103 104 105 99 88 81 80 76 69 65 66 66 64 63 63 63 62 60 55 51 46 41 42 56 74 89 97 103 104 101 100 100 100 100 100 100 100 100 100 100 100 100 100 100 100 100 100 100 100 100 101 100 100 100 100 100 100 101 101 100 95 85 71 54 39 32 29 27 29 38 48 54 60
103 103 104 106 106 106 104 102 101 101 102 104 104 104 105 105 98 89 86 83 76 67 66 68 68 67 66 64 63 61 59 55 50 45 43 50 68 87 98 102 102 101 101 100 100 100 100 100 100 100 100 100 100 100 100 100 100 100 100 100 100 100 100 100 100 100 100 100 100 101 102 102 95 83 68 53 40 32 29 28 31 40 50 57 63
101 102 104 105 106 107 107 105 104 102 102 104 106 106 106 107 105 99 94 91 85 75 68 68 70 71 70 69 66 63 61 58 54 49 45 47 60 81 97 102 100 100 101 100 100 100 100 99 100 100 100 100 100 100 100 100 100 99 100 100 100 100 100 100 100 100 100 100 100 101 102 102 96 83 68 52 39 31 28 28 32 40 50 58 64
98 99 102 103 104 105 106 106 106 105 104 104 105 107 107 108 108 106 102 99 95 86 75 71 73 74 74 73 71 67 64 62 59 55 50 47 52 71 93 103 101 99 101 101 99 100 100 100 100 100 100 100 100 100 100 100 100 100 100 100 100 100 100 100 100 100 100 100 100 101 102 102 97 85 68 51 38 31 29 29 31 39 50 58 65
98 97 99 101 102 104 105 106 106 106 106 105 105 105 106 107 109 109 108 107 104 97 85 77 76 78 77 76 75 73 69 65 63 60 57 52 50 60 83 100 102 99 100 101 100 100 100 100 100 100 100 100 100 100 100 100 100 100 100 100 100 100 100 100 100 100 100 100 100 100 102 103 97 84 67 50 38 32 29 29 31 37 48 58 65
94 92 93 96 99 103 105 105 105 105 105 106 105 105 104 104 105 107 109 110 111 108 97 85 79 80 81 79 78 77 74 70 67 64 62 59 53 54 70 92 103 101 99 100 100 100 100 100 100 100 100 100 100 100 100 100 100 100 100 100 100 100 100 100 100 100 100 100 100 100 102 104 98 84 65 49 39 32 30 30 32 37 45 55 65
88 86 85 87 92 99 103 104 102 102 103 104 104 105 104 102 102 103 105 108 111 113 109 97 85 82 83 83 81 79 78 75 72 68 66 66 61 55 61 80 98 103 100 99 101 100 99 100 100 100 100 100 100 100 100 100 100 100 100 100 100 100 100 100 100 100 100 100 100 99 102 104 99 84 63 48 39 34 31 31 34 37 43 52 63
81 80 79 78 81 88 97 101 100 99 99 99 101 103 103 102 101 100 101 104 107 110 110 105 94 87 85 86 84 82 80 79 77 73 70 70 70 64 59 67 87 101 102 99 99 100 100 99 100 100 100 100 100 100 100 100 100 100 100 100 100 100 100 100 100 100 100 100 100 100 101 104 101 86 66 49 41 36 32 31 35 39 42 49 59
70 72 72 72 73 76 84 91 96 98 97 97 98 100 101 102 101 99 98 100 103 105 107 107 102 94 89 88 88 86 83 81 80 78 74 73 75 74 65 62 74 93 103 101 99 100 101 100 100 100 100 100 100 100 100 100 100 100 100 100 100 100 100 100 100 100 100 100 100 100 101 103 102 91 71 53 43 37 33 33 36 40 43 49 56
Wind_Speed
67 68 69 71 72 74 75 76 77 78 78 79 80 80 81 81 82 82 83 83 83 82 82 82 82 82 82 81 80 78 76 74 74 75 75 75 76 76 76 77 77 77 76 76 75 74 74 74 74 74 75 75 75 76 76 77 78 78 78 77 77 77 77 79 79 76 76 75 73 70 68 66 66 68 66 64 64 65 68 71 72 74 77 80 83
68 70 71 73 74 75 76 77 78 79 79 79 79 80 80 81 82 82 82 82 82 82 82 82 82 82 81 80 78 76 73 71 71 72 72 72 73 73 73 74 74 74 74 73 72 72 72 72 72 72 73 74 74 74 74 75 75 75 74 74 74 74 74 75 75 73 70 66 60 57 57 58 62 65 62 59 60 61 64 67 68 69 72 75 78
70 71 73 74 75 76 76 77 78 78 79 79 80 80 81 81 82 82 82 82 82 82 82 82 82 81 79 77 74 72 70 69 69 69 69 69 69 69 70 70 71 71 71 70 70 70 70 70 70 70 71 71 71 72 71 71 72 71 71 71 70 70 71 70 69 67 61 54 51 53 54 54 58 61 58 57 58 59 60 63 64 66 69 71 74
71 72 73 74 74 75 76 76 77 78 78 79 80 80 81 82 82 82 82 82 83 83 83 83 82 79 76 73 71 69 68 67 67 67 67 67 67 67 66 67 68 68 68 68 67 67 68 67 67 68 69 69 69 69 69 68 68 68 68 68 67 67 67 65 64 60 52 48 49 54 56 54 54 57 57 56 57 57 57 59 60 63 66 68 70
71 72 73 73 74 75 76 77 77 78 79 80 80 81 82 82 82 83 83 83 83 83 83 82 80 76 73 70 68 67 66 65 65 64 64 64 65 65 64 64 65 65 65 66 65 65 65 65 65 66 67 67 66 66 66 65 65 65 65 65 65 64 63 60 57 53 49 47 48 54 56 54 53 53 54 56 56 55 56 57 58 60 63 65 67
72 73 74 74 75 76 77 78 79 79 80 81 81 82 82 82 83 83 84 84 84 84 83 80 76 72 69 67 66 64 64 63 62 62 61 62 62 62 62 62 62 63 63 63 63 63 63 63 64 64 64 64 63 63 63 63 63 63 62 62 62 61 59 56 52 51 50 48 48 51 53 53 52 52 53 56 55 54 55 57 57 59 61 63 65
73 74 75 76 77 78 78 79 80 80 81 82 82 83 83 83 84 84 84 84 84 83 81 77 73 69 66 65 63 62 61 61 60 60 59 59 59 60 60 60 60 60 61 61 61 61 61 61 62 62 61 61 61 61 61 61 61 60 59 59 59 57 56 53 51 50 50 51 51 51 52 52 52 52 54 56 55 53 55 56 56 57 59 60 62
74 75 76 77 78 78 79 80 81 81 82 83 83 84 84 84 85 85 85 85 84 83 79 74 69 66 64 62 61 60 60 59 59 58 58 58 58 58 58 58 58 59 59 59 59 59 59 59 59 59 59 58 58 58 58 58 58 57 57 57 55 54 53 52 51 50 49 50 51 51 52 51 51 51 54 55 54 53 55 55 54 56 58 58 59
75 76 77 78 79 79 80 81 82 83 84 84 85 85 85 86 86 86 86 86 84 81 77 71 67 63 62 61 59 58 58 57 57 57 56 56 56 56 57 57 57 57 57 57 57 57 56 56 56 56 56 56 56 56 56 56 55 55 55 54 52 52 52 51 51 49 47 46 46 47 49 50 50 51 53 55 55 54 55 54 53 54 56 56 57
76 77 78 79 80 80 81 82 83 84 85 86 86 86 87 87 87 87 87 85 82 78 73 69 64 62 61 60 59 57 57 56 55 55 55 55 55 55 55 55 55 55 55 55 54 54 54 53 53 54 54 54 54 54 54 53 52 52 52 51 49 50 52 51 49 48 48 46 45 45 47 48 48 50 52 55 55 54 54 53 52 53 54 55 55
77 78 79 80 81 81 82 83 84 86 87 87 88 88 88 88 88 88 87 84 80 75 70 66 63 61 60 59 58 57 56 55 54 54 54 54 54 54 54 53 53 53 53 53 52 51 51 51 51 52 52 52 52 53 51 50 51 51 50 48 47 49 50 50 48 46 46 47 46 45 46 46 47 49 52 55 55 54 52 51 51 52 52 53 54
79 80 81 81 82 82 83 84 85 87 88 88 89 89 89 89 89 88 85 81 76 72 68 65 62 61 60 59 58 57 56 55 54 54 53 53 54 54 53 53 53 52 51 50 50 49 49 50 50 50 51 51 51 50 49 49 49 49 47 46 46 48 49 49 47 46 46 47 47 46 45 46 47 49 52 55 54 53 51 50 50 51 51 52 52
80 81 81 82 82 83 84 85 87 88 89 89 89 89 90 89 89 87 83 78 73 69 66 64 62 61 60 59 58 57 56 54 54 54 53 53 53 53 53 52 52 51 49 48 47 48 48 48 49 49 50 50 50 48 48 48 48 47 46 45 46 48 50 49 49 49 49 49 49 48 47 47 48 49 53 55 53 50 50 49 50 51 50 51 52
81 81 81 82 83 85 86 87 88 89 89 90 90 90 90 89 87 84 80 75 72 68 66 64 62 61 61 60 58 57 55 54 54 53 53 53 53 52 52 51 50 49 47 46 45 46 47 47 48 48 49 49 48 47 47 47 47 45 45 44 46 48 50 51 51 51 51 51 49 48 47 48 48 49 52 54 51 49 50 50 50 50 50 50 51
81 81 82 83 85 86 87 88 89 90 90 90 90 90 89 88 85 81 77 73 70 68 66 64 62 60 60 60 59 57 56 55 54 53 52 52 52 52 51 50 49 48 46 45 44 44 46 47 47 47 47 47 46 46 46 47 45 44 43 43 46 49 50 50 50 50 50 49 48 48 48 48 48 48 50 50 49 49 49 49 49 49 49 50 50
81 81 83 84 86 87 88 89 89 90 90 90 90 89 87 84 81 78 74 70 67 65 63 62 61 60 59 59 58 57 56 55 54 53 52 52 51 51 50 48 47 46 45 44 43 43 45 46 46 46 46 45 45 46 46 46 44 43 42 43 46 49 49 49 49 47 47 47 47 47 47 47 48 47 47 47 47 48 48 47 48 48 48 49 49
81 82 84 85 87 88 89 89 89 89 90 90 89 87 84 81 77 74 70 65 62 60 60 59 59 58 58 57 57 56 55 55 54 53 52 51 51 50 49 47 46 45 44 43 42 42 44 46 46 45 44 44 45 46 46 46 43 42 41 42 45 48 48 48 48 46 45 46 46 46 46 46 46 45 45 46 46 46 46 46 47 47 47 48 48
81 83 85 86 88 89 90 90 90 90 90 89 87 84 80 76 73 69 65 61 58 57 56 55 55 56 56 56 55 54 53 53 53 53 52 51 50 49 48 46 45 45 44 43 42 43 44 45 44 43 42 43 45 46 46 45 43 41 41 42 44 46 47 48 47 45 45 46 46 45 44 45 44 43 43 44 44 44 45 46 46 46 46 47 47
82 84 86 87 89 89 90 90 90 90 89 86 83 80 76 72 68 64 61 59 57 55 54 52 51 52 53 53 53 52 50 50 50 51 51 50 50 48 47 46 45 44 43 43 42 43 44 43 42 42 43 44 45 45 45 44 42 40 40 41 43 45 47 48 47 45 45 46 46 44 43 43 43 42 41 41 42 42 43 45 45 45 46 46 47
83 85 86 87 88 89 89 89 89 88 86 82 79 75 72 67 64 61 60 58 56 55 53 51 49 49 50 50 50 50 49 47 47 48 49 49 48 47 46 45 43 43 43 43 43 43 43 42 42 43 45 45 45 44 44 44 41 39 39 40 43 45 47 47 46 45 45 46 46 44 42 42 43 42 40 40 40 41 43 44 45 45 46 46 46
84 85 86 87 87 87 87 88 87 84 82 78 74 70 67 64 63 61 59 58 56 54 52 50 48 46 47 48 48 48 47 46 45 45 46 46 46 46 45 43 42 42 42 42 42 43 42 42 43 45 46 44 43 43 43 42 40 38 38 40 42 45 45 45 46 46 45 46 46 45 42 41 42 42 41 41 41 42 43 44 45 45 45 45 45
84 85 85 85 85 85 85 85 83 80 77 74 70 65 63 63 63 61 59 57 55 53 52 49 47 45 44 45 46 46 45 44 43 43 43 44 44 45 44 43 42 42 41 41 41 41 41 42 43 45 44 43 42 42 42 40 38 36 37 39 42 43 44 44 45 45 45 45 46 45 43 41 41 42 42 42 41 42 42 43 44 44 44 45 45
84 84 84 83 83 84 82 80 78 76 73 69 65 62 61 61 62 61 59 56 54 51 50 48 46 44 42 42 43 44 44 43 42 41 41 41 42 42 42 41 41 41 40 39 40 40 40 40 41 42 42 41 40 41 40 38 36 35 36 39 41 42 43 44 45 44 44 44 45 45 44 42 41 41 42 42 41 41 42 43 43 42 43 44 45
83 83 82 82 82 81 78 76 74 71 68 64 61 60 60 60 61 60 58 55 51 48 46 45 43 41 40 40 40 41 42 41 41 40 39 40 40 40 40 40 39 39 38 38 39 38 38 39 40 41 41 40 39 40 39 37 36 36 37 39 40 41 43 44 44 43 43 43 43 43 43 42 42 41 42 42 41 41 41 41 42 42 43 44 44
81 81 81 81 79 77 74 72 70 67 64 61 59 58 59 59 59 58 55 51 47 44 42 41 39 38 37 38 37 38 39 40 40 39 38 38 38 38 38 38 38 37 38 38 38 37 38 39 40 40 39 38 38 39 38 37 36 37 38 38 39 41 42 43 43 42 42 41 41 42 42 42 42 42 42 41 40 39 40 40 41 42 43 43 43
79 80 79 78 76 73 71 68 65 62 60 59 58 58 58 58 58 56 53 47 42 39 38 37 35 34 34 35 35 35 36 37 38 38 37 37 37 37 37 36 36 36 37 37 37 37 38 38 38 38 37 37 38 38 38 37 37 37 37 38 39 40 41 41 41 41 40 39 40 41 42 42 43 42 41 40 39 39 40 40 41 42 42 42 42
78 78 77 75 73 70 67 64 60 58 57 56 56 56 56 57 56 54 50 44 38 35 35 34 32 32 32 32 32 32 33 33 35 36 36 36 36 35 35 35 35 35 36 35 36 37 37 37 37 36 36 37 38 38 37 36 36 36 36 37 38 39 40 40 40 39 39 39 39 40 41 42 42 41 40 39 40 39 39 40 41 41 41 41 41
77 76 74 72 70 67 64 61 58 56 55 54 54 54 54 54 53 51 47 42 36 32 31 31 29 29 31 31 30 30 31 31 32 33 35 35 34 34 34 33 33 34 34 34 35 36 37 36 35 35 36 37 37 37 36 35 35 35 36 37 37 38 39 39 38 38 38 39 39 39 40 40 40 39 39 39 40 40 39 40 41 41 41 40 40
74 73 71 69 66 63 60 58 56 55 53 52 51 51 52 52 51 47 44 41 36 31 30 29 26 26 27 28 27 27 29 30 30 30 32 33 32 32 32 32 32 33 33 33 34 35 35 35 34 34 35 37 38 37 36 35 35 35 36 36 37 37 38 38 38 37 37 37 37 38 38 38 38 38 39 39 39 40 40 40 40 40 40 40 39
71 70 67 65 62 60 58 56 55 54 52 50 48 47 48 50 51 48 43 39 35 32 30 29 27 24 25 26 25 24 25 27 28 28 29 30 30 30 31 31 31 31 31 32 33 34 34 34 34 34 36 38 39 38 37 36 35 36 36 37 36 37 38 37 37 37 36 35 36 36 37 38 38 39 39 40 39 40 40 40 40 40 39 39 38
68 66 64 61 59 58 56 55 54 52 51 49 47 44 42 42 45 48 46 40 35 31 29 29 28 26 25 24 24 23 23 24 25 26 27 28 28 28 29 29 29 30 30 31 32 33 33 34 34 35 37 39 40 39 38 36 36 36 37 38 37 37 38 38 37 37 36 35 35 36 37 37 38 39 40 40 39 39 39 39 39 39 38 38 37
66 63 61 58 57 56 55 54 53 51 49 47 46 44 41 37 35 40 44 44 38 32 28 27 28 28 27 25 23 22 22 22 23 24 25 26 27 28 28 28 28 28 29 29 31 32 33 33 33 35 37 39 39 39 38 36 36 37 38 39 39 38 39 38 37 36 36 35 36 37 37 38 39 40 40 39 39 39 39 39 38 38 38 38 37
64 61 59 57 56 55 54 53 52 50 48 46 44 43 41 37 32 30 35 40 41 36 31 26 24 25 26 25 23 22 22 22 22 23 23 24 26 27 27 28 28 28 28 29 30 31 31 32 33 34 37 39 39 39 38 37 37 38 39 39 39 39 39 39 38 37 37 37 37 38 39 40 41 41 40 39 38 39 39 38 38 38 38 37 36
61 59 58 56 55 54 53 52 51 49 47 46 44 42 40 38 34 29 27 30 34 36 34 30 26 24 24 25 24 22 21 21 22 22 22 23 24 26 26 27 28 29 29 29 30 31 31 31 32 34 36 37 38 38 38 37 37 38 39 40 39 39 39 38 38 38 38 38 38 39 40 41 42 41 40 39 39 39 38 38 38 38 38 36 35
59 57 57 56 55 54 53 51 50 48 46 45 43 41 39 37 35 31 27 25 26 28 29 30 29 27 26 25 24 22 21 21 21 22 22 22 24 25 26 27 28 29 30 30 30 31 31 32 32 34 35 36 36 37 37 37 38 39 40 39 38 38 37 37 37 37 37 38 39 40 40 41 41 40 39 39 39 38 38 38 37 37 37 36 35
57 56 55 54 54 52 51 50 49 47 46 44 42 41 39 37 35 32 29 27 25 25 25 26 27 27 25 24 24 22 21 20 21 22 22 22 23 25 26 27 27 28 30 30 31 31 31 32 33 34 35 35 36 36 36 37 38 39 39 38 37 36 36 36 36 36 37 37 38 39 40 40 40 40 40 39 39 38 37 36 36 36 36 35 35
56 55 54 53 52 51 50 49 48 46 45 44 42 40 39 37 36 33 31 28 26 25 25 24 25 25 24 23 22 21 21 20 20 21 22 22 23 25 26 27 28 28 29 30 30 31 31 32 33 34 35 35 36 37 37 37 38 38 39 38 37 37 36 36 36 36 36 37 38 38 39 40 40 40 40 39 38 37 36 35 35 35 35 35 35
56 55 54 52 51 50 49 47 47 45 44 43 41 40 38 37 36 34 32 29 27 26 25 24 23 23 24 23 22 21 20 20 20 20 21 22 22 24 26 27 28 28 28 29 30 30 31 31 32 33 34 35 36 37 37 38 38 39 39 38 37 37 37 36 37 37 37 38 39 39 40 40 41 40 39 38 37 36 35 35 35 35 34 34 35
55 54 53 51 50 49 48 47 45 44 43 42 40 39 37 36 34 33 32 30 28 26 25 24 23 22 22 23 23 21 20 19 19 20 21 22 22 24 26 27 28 29 28 29 29 30 31 31 32 33 34 34 35 36 36 36 37 37 37 37 37 37 37 37 37 38 38 38 39 39 40 40 40 39 38 37 36 36 35 34 34 34 35 35 36
53 52 52 50 49 48 47 46 45 43 42 41 39 38 36 34 33 32 31 30 28 27 25 24 23 22 22 22 22 22 20 19 19 19 20 21 22 24 25 27 29 29 29 29 29 30 31 32 33 33 34 35 35 36 36 36 36 36 37 37 37 37 37 38 38 37 37 38 38 39 40 40 39 38 37 37 36 36 35 34 34 35 35 36 37
52 51 50 49 48 47 46 45 44 43 42 40 38 37 35 34 32 31 30 29 28 27 26 24 23 22 22 21 21 21 20 19 19 19 20 21 22 24 25 27 29 30 30 30 30 30 31 32 33 34 35 35 36 36 36 37 37 37 37 37 37 37 37 37 37 37 37 37 38 39 39 39 39 38 37 37 36 36 35 34 34 36 36 37 37
52 50 49 49 48 46 45 44 43 42 41 39 38 36 34 33 31 30 29 28 27 26 25 24 24 22 22 21 21 21 20 20 19 19 19 20 22 23 25 27 29 30 31 31 31 31 31 32 33 34 35 36 36 36 36 37 37 37 37 37 37 37 37 37 36 36 36 37 38 38 39 39 39 38 37 37 36 35 35 34 35 36 37 38 38
51 50 48 48 47 46 44 43 42 40 39 38 37 35 33 32 30 29 28 27 26 25 24 24 23 23 22 21 20 20 20 20 19 19 19 20 21 23 25 27 29 31 31 31 31 31 32 32 34 35 35 36 36 36 37 37 37 37 37 37 37 37 37 37 36 36 36 36 37 38 39 39 38 38 37 36 35 35 34 34 34 36 37 38 39
49 48 47 46 45 44 43 42 41 40 38 37 36 34 32 31 30 29 27 26 26 25 24 23 22 22 21 21 20 19 19 19 19 19 19 20 21 23 24 26 28 30 32 32 32 32 32 33 34 35 36 36 36 36 36 37 37 37 37 37 36 36 36 37 36 36 36 37 37 38 38 38 38 37 37 36 35 35 34 34 34 36 38 39 39
47 46 45 44 43 42 41 41 40 38 37 36 35 34 32 30 29 28 27 26 25 24 24 23 22 21 21 21 20 19 19 19 19 19 19 20 21 22 24 26 28 30 32 32 32 32 32 33 34 35 36 36 36 36 36 37 37 37 37 37 36 36 36 36 36 36 36 36 37 37 38 38 38 38 37 36 36 35 34 34 35 36 38 40 40
45 44 43 42 41 40 39 38 37 37 36 35 34 33 31 30 28 27 26 25 24 24 23 23 22 21 21 20 20 19 19 18 18 19 19 19 20 22 24 26 27 29 31 32 33 33 33 33 34 35 36 36 36 36 36 37 37 37 37 37 36 36 36 36 36 36 36 36 36 36 37 37 37 38 37 37 36 36 35 34 35 37 39 40 41
44 42 41 40 39 38 37 36 35 35 34 34 33 32 31 29 28 27 26 25 24 23 22 22 22 21 21 20 20 20 19 19 18 18 19 19 20 21 23 25 27 29 30 32 33 33 33 34 34 35 35 36 36 36 36 37 37 37 37 36 36 36 35 36 36 36 35 35 36 36 36 36 37 37 37 37 36 36 35 35 35 37 39 41 41
45 42 40 39 38 37 36 35 34 33 33 32 32 31 30 29 28 26 25 25 24 23 22 22 22 21 20 20 19 19 19 19 19 18 18 19 19 20 22 25 27 28 30 31 32 33 34 34 34 35 35 36 36 36 37 37 37 37 37 36 36 36 35 35 35 35 35 35 35 35 36 36 37 37 37 37 36 36 36 35 35 37 39 41 42
46 43 41 39 38 36 35 34 33 32 31 31 30 30 29 28 27 26 25 24 24 23 22 21 21 21 21 20 19 19 19 19 19 18 18 19 19 20 21 24 26 28 30 31 32 33 34 34 34 35 36 36 36 36 36 37 37 37 37 37 36 36 36 35 35 35 35 35 35 35 35 36 36 37 36 36 36 36 36 35 36 37 39 41 42
47 45 42 40 38 37 35 34 33 32 30 30 29 29 28 28 27 26 25 24 24 23 22 21 21 21 21 20 19 19 18 19 19 18 18 19 19 19 20 22 25 27 29 31 32 33 34 34 35 35 35 36 36 37 36 37 37 37 37 37 36 36 36 35 35 34 34 34 34 35 35 36 36 36 36 36 36 36 36 36 36 37 38 40 42
48 46 44 42 40 38 36 34 33 32 30 29 29 28 27 27 26 25 25 24 23 23 22 21 21 20 20 20 19 19 18 18 18 18 18 18 19 19 20 21 23 26 29 31 32 33 34 35 35 35 35 36 36 37 37 37 37 37 37 37 37 36 36 36 35 35 34 34 34 35 35 36 36 36 36 36 36 36 36 36 36 37 38 40 42
Wind_Direction
298 299 301 302 303 303 304 304 304 303 303 302 302 302 303 303 303 303 303 302 301 300 299 298 297 297 296 294 292 288 284 279 274 271 269 269 268 267 267 266 266 265 264 264 264 264 265 265 266 267 267 268 268 269 269 270 270 270 271 271 272 273 273 275 276 276 276 275 272 265 259 253 243 238 236 235 239 241 238 236 235 233 234 234 234
300 301 302 303 303 304 304 304 303 303 302 302 302 303 303 304 304 304 303 303 302 301 300 299 299 298 297 294 291 287 283 278 274 271 270 269 268 268 267 266 266 265 265 264 264 265 265 265 266 266 267 267 267 268 269 269 270 271 272 273 273 274 275 277 277 278 276 271 262 251 246 243 235 231 233 234 237 240 237 235 233 231 231 233 233
301 302 303 303 304 304 304 303 303 303 303 303 303 304 305 305 304 304 303 303 302 301 301 301 300 299 296 292 288 285 281 277 274 272 271 270 269 268 268 267 267 266 265 265 265 265 265 265 266 266 266 267 267 268 269 269 270 272 273 273 274 275 276 276 276 277 271 258 246 237 237 239 234 232 234 235 236 239 238 234 233 231 230 231 232
301 302 303 303 303 303 303 303 303 303 303 304 305 305 306 305 305 304 304 303 303 302 302 301 300 298 295 290 285 282 279 277 274 273 273 271 270 268 268 268 267 267 266 265 265 265 265 265 265 266 266 267 267 268 269 270 271 272 273 273 275 275 275 275 274 271 259 246 238 233 234 237 236 234 235 235 236 238 236 233 232 231 229 229 230
302 302 303 303 303 303 303 303 303 304 304 305 306 306 306 306 305 305 304 304 304 303 303 301 299 296 291 286 282 279 278 276 275 274 273 272 271 270 269 268 268 268 267 266 266 265 265 265 265 266 266 267 268 268 269 270 271 271 272 273 275 274 273 272 269 261 249 242 238 233 233 236 236 234 236 237 238 237 233 231 231 230 228 228 229
302 303 303 304 304 304 304 304 304 305 306 306 307 307 307 306 306 305 305 304 304 303 302 300 297 293 287 283 280 278 277 276 275 274 273 272 271 270 269 268 268 268 268 267 266 266 265 265 265 266 266 267 267 268 268 269 270 270 271 273 273 271 270 266 260 253 247 241 237 232 233 235 235 235 238 239 239 235 231 230 230 229 228 227 227
304 304 304 304 304 304 304 305 305 306 307 307 307 307 307 307 306 306 305 305 304 303 302 299 294 289 283 280 279 277 276 275 274 273 272 271 270 269 268 267 267 267 267 267 266 266 266 265 265 266 266 267 267 267 268 268 269 270 271 272 271 268 266 260 253 251 247 241 237 234 234 236 236 236 239 239 237 232 230 229 229 228 227 226 227
305 305 305 305 304 305 305 305 306 307 307 308 308 308 307 307 306 306 305 305 304 303 300 297 291 285 280 278 277 277 276 274 273 272 271 270 269 268 268 267 266 266 266 266 266 265 265 265 265 266 266 266 266 266 267 267 268 269 270 270 268 264 261 255 249 250 247 241 237 235 234 236 237 237 238 238 234 230 229 228 227 228 227 226 227
305 305 305 305 305 305 305 306 307 308 308 309 309 308 308 307 307 306 306 305 304 302 299 294 289 282 278 276 276 275 275 274 273 272 271 270 269 268 268 267 266 266 265 265 265 265 265 265 265 265 264 265 265 265 267 266 266 268 269 267 265 260 255 250 248 247 245 240 236 234 234 237 237 236 235 235 233 229 227 226 226 227 227 227 228
305 305 305 305 305 306 306 307 308 308 309 309 309 309 308 308 307 307 306 305 303 301 297 292 287 281 276 275 274 273 273 273 272 272 271 270 269 268 267 266 266 265 265 265 264 264 264 264 264 264 264 264 265 265 265 264 265 267 266 264 262 256 250 247 247 246 243 242 239 238 238 239 237 235 233 233 231 229 226 225 226 227 227 227 229
306 306 306 306 306 307 307 308 309 309 309 310 309 309 309 308 308 307 306 305 302 299 295 290 285 280 276 274 273 272 271 271 271 270 270 270 269 268 267 266 265 264 264 264 264 263 263 263 263 263 264 264 264 264 263 262 264 265 264 262 258 251 246 246 247 246 243 242 242 241 242 241 237 234 232 231 229 227 226 225 226 227 228 228 229
307 307 307 307 307 308 308 309 309 310 310 310 310 309 309 308 308 307 306 304 301 297 293 289 284 279 276 274 272 271 271 270 270 269 269 269 268 268 267 266 265 263 263 263 263 262 262 262 263 263 263 264 263 263 261 261 263 263 261 259 255 247 244 244 246 246 245 243 244 245 245 242 237 233 231 229 227 225 224 224 226 227 228 229 230
308 308 307 307 308 308 309 310 310 310 310 310 310 310 309 309 308 307 305 302 299 295 291 288 284 279 275 273 272 271 270 270 269 269 268 268 268 267 266 266 265 264 263 262 262 262 262 262 262 262 262 263 262 261 259 259 262 261 259 257 251 245 243 243 243 245 245 246 246 245 244 241 236 232 229 227 225 224 224 225 226 227 228 230 231
308 308 308 308 308 309 310 310 311 311 311 310 310 310 309 309 308 306 304 301 297 293 290 287 283 279 276 273 271 271 270 270 269 268 268 267 267 267 266 265 265 264 263 262 261 262 262 261 261 261 261 261 260 258 257 258 260 259 257 255 248 242 242 243 243 243 244 245 244 242 241 239 234 230 227 225 224 224 225 225 226 226 229 231 233
308 308 308 309 309 310 311 311 311 311 311 311 310 310 309 309 307 305 303 300 296 292 289 285 282 279 276 273 271 269 269 269 269 268 267 267 266 265 265 265 264 264 263 261 261 261 261 261 260 260 260 259 257 255 255 256 257 257 256 254 246 241 241 243 243 243 243 241 239 239 239 236 231 229 226 224 224 225 225 226 226 228 230 232 234
308 308 309 310 310 311 311 312 311 311 311 311 311 310 309 308 307 305 303 300 296 293 289 285 281 278 276 274 271 269 268 267 267 267 266 266 265 265 264 264 264 263 262 261 261 260 261 261 260 259 259 256 254 253 253 254 255 255 254 252 246 240 240 242 242 242 240 236 234 236 237 233 229 227 225 223 224 225 225 226 228 230 232 234 235
308 309 310 311 311 312 312 312 312 311 311 311 311 310 309 308 306 305 303 300 297 294 290 286 281 278 275 274 272 270 268 267 267 266 266 265 264 264 263 263 263 263 262 261 260 260 260 260 259 258 256 253 251 251 252 252 253 253 252 250 245 240 239 241 241 241 237 232 232 235 234 230 228 226 223 223 223 224 225 227 230 231 233 235 236
310 311 311 312 312 313 313 312 312 312 312 312 312 311 310 309 307 305 303 301 298 295 291 288 283 278 275 273 272 270 269 267 266 266 265 265 264 263 263 262 262 262 262 261 260 259 259 259 258 256 253 250 249 250 251 251 251 250 249 247 243 239 239 240 241 239 234 230 231 233 232 228 227 226 224 224 223 224 226 229 231 233 235 236 236
311 312 313 313 313 313 313 313 313 313 313 313 312 311 310 309 307 306 304 302 299 296 293 290 286 281 276 273 271 270 268 267 265 264 264 263 263 263 262 261 261 261 261 260 259 259 258 257 255 253 249 247 247 249 249 249 249 247 246 244 242 240 240 240 239 237 232 229 230 231 230 228 226 226 225 225 225 226 229 231 233 235 236 236 235
313 313 314 314 314 314 314 314 314 314 314 313 313 312 311 309 308 307 305 303 300 297 294 292 289 284 278 274 271 269 268 267 265 264 263 262 262 262 261 260 260 260 260 259 259 258 257 255 251 249 246 244 245 246 246 247 247 245 243 241 241 240 240 240 238 236 232 229 229 229 229 228 226 225 225 225 225 227 229 231 233 235 236 235 234
314 314 314 314 314 314 314 315 315 314 314 314 313 312 311 310 309 308 306 304 300 297 294 291 289 286 281 275 271 269 266 265 265 264 263 262 262 261 261 260 260 259 258 258 258 257 255 252 248 246 244 243 243 244 244 244 245 243 240 239 239 240 240 240 237 234 231 229 227 227 227 227 226 225 225 226 226 227 229 231 233 235 236 235 233
315 315 315 315 315 315 315 315 315 315 314 314 313 312 311 310 310 309 307 305 301 297 293 289 287 285 282 277 272 269 266 264 263 262 262 262 261 260 260 259 259 258 257 257 257 255 253 251 248 246 244 242 243 243 242 243 243 240 237 237 238 239 240 238 236 233 230 228 226 225 226 226 225 225 226 227 228 228 230 232 234 235 235 234 232
315 315 315 315 316 316 316 316 315 315 315 314 313 312 312 311 311 310 309 306 302 298 292 288 284 283 281 278 273 270 266 263 262 262 261 261 260 259 258 258 257 257 256 255 254 252 250 248 246 244 242 242 242 242 241 241 241 238 236 236 237 238 237 236 234 231 229 227 225 224 225 225 225 225 226 227 227 228 230 233 234 234 234 233 231
316 316 316 316 317 317 317 316 316 315 314 314 313 313 313 313 313 312 311 308 305 300 294 288 284 282 280 278 274 271 267 264 262 261 261 260 259 258 257 256 256 255 254 253 251 249 247 245 242 240 240 241 240 239 238 239 238 236 235 236 237 237 235 233 231 229 228 226 225 224 225 225 225 225 225 226 226 228 231 233 234 234 233 231 230
316 316 317 317 317 317 317 317 317 316 315 314 313 314 314 315 314 313 312 310 307 302 295 290 286 283 280 278 274 272 269 265 262 261 261 260 259 258 256 255 254 253 252 250 248 246 243 240 238 237 238 239 237 235 236 236 235 235 235 235 236 235 233 231 229 228 227 226 225 224 224 224 224 224 225 225 226 228 231 232 233 233 231 229 228
317 317 317 318 318 318 318 317 317 316 315 315 315 315 316 316 316 314 313 312 309 304 298 293 289 286 283 279 276 273 270 266 262 260 259 259 258 256 255 254 252 251 249 248 246 243 239 237 235 236 237 236 234 232 233 234 233 233 234 235 236 234 231 230 229 227 226 225 224 223 223 223 224 224 224 225 227 228 231 231 231 231 229 228 227
318 318 318 318 318 318 318 318 317 316 316 316 316 317 318 318 317 315 314 312 310 304 299 295 293 290 286 283 280 276 272 267 263 259 257 256 256 254 252 251 249 248 247 245 243 240 237 234 233 234 235 233 230 230 231 231 231 233 234 235 234 232 230 230 229 227 225 223 223 222 222 223 223 224 224 225 226 228 229 230 230 229 227 226 226
319 319 319 319 319 318 318 318 318 318 317 317 317 318 318 318 317 315 313 312 310 304 297 294 291 289 286 283 281 279 276 270 264 259 256 254 254 252 250 249 246 245 244 242 239 238 235 232 231 233 232 229 228 229 230 229 229 231 232 233 233 231 230 230 229 226 224 222 221 221 221 222 223 224 225 225 227 228 229 229 228 227 226 225 226
319 319 319 319 319 319 319 319 319 319 319 319 319 319 319 319 317 314 312 313 312 307 300 294 289 285 284 282 278 276 275 272 266 260 256 253 253 252 250 247 245 243 241 239 236 234 232 230 230 230 228 225 225 227 228 228 228 228 229 231 230 230 230 229 228 226 224 222 221 221 221 222 223 224 225 226 226 227 228 227 227 226 225 225 226
319 319 319 319 319 320 320 321 321 321 320 319 320 321 321 320 318 315 313 313 313 310 306 300 294 287 285 284 279 274 272 271 267 260 255 251 251 250 248 246 244 241 239 236 234 231 229 228 228 227 224 222 223 225 228 229 228 226 227 228 228 228 229 228 226 224 222 221 221 221 221 222 222 223 224 225 226 226 227 226 225 225 226 226 226
320 320 320 320 320 321 321 322 322 322 321 320 319 321 322 321 317 314 312 313 313 311 309 305 299 294 289 287 285 280 274 270 265 259 253 249 246 245 244 243 240 238 235 232 231 229 226 226 227 225 222 221 222 224 227 228 228 226 225 226 226 226 226 226 224 222 220 218 219 220 221 222 223 223 224 224 225 226 226 225 224 225 226 226 226
320 321 321 321 321 322 323 323 323 322 322 321 320 321 323 322 316 311 310 312 312 311 309 305 301 297 293 289 287 284 280 273 266 259 252 247 243 241 239 238 236 233 230 228 227 226 225 226 226 224 222 221 222 224 226 227 227 226 225 225 225 225 224 223 221 220 218 216 217 218 219 220 221 223 223 223 224 224 224 224 224 225 226 226 226
321 321 322 322 323 323 323 323 323 323 322 322 320 320 322 322 318 310 307 309 310 311 309 304 298 295 293 290 287 284 280 275 268 260 254 248 243 239 237 235 232 228 225 224 224 223 224 225 226 224 222 221 222 224 225 227 227 226 225 225 225 224 223 220 218 217 216 215 216 217 219 220 221 222 222 222 223 223 223 223 223 224 225 226 226
322 322 323 323 323 323 323 323 324 323 323 322 321 321 322 323 321 314 306 304 307 309 310 309 304 299 295 291 287 284 280 276 269 262 255 250 243 238 235 233 230 225 222 221 221 221 222 223 224 224 223 222 223 224 225 227 227 226 224 224 225 224 222 219 217 217 216 216 217 218 219 221 222 222 222 221 222 222 222 222 222 224 225 225 225
322 323 323 323 323 323 323 323 324 324 324 323 322 321 321 322 322 318 311 304 302 303 304 305 303 301 298 294 289 285 280 276 270 263 256 250 244 237 232 230 228 224 220 219 219 220 220 221 222 222 223 223 223 224 225 226 226 224 223 223 223 222 220 218 217 217 217 218 219 219 220 222 223 223 223 222 221 222 222 222 222 223 223 223 223
322 322 323 322 322 322 322 322 323 323 324 323 322 321 321 322 323 321 315 309 305 303 301 299 298 296 294 292 289 285 280 274 269 263 256 250 245 238 230 226 226 225 221 220 219 219 220 220 220 220 221 222 223 224 224 224 224 223 221 220 219 218 217 217 217 217 218 219 220 221 221 222 223 223 223 222 222 222 222 223 223 223 222 222 221
322 322 322 322 321 321 321 322 322 323 323 323 323 322 322 322 322 322 319 313 308 305 303 301 298 295 293 289 286 284 280 275 269 263 256 250 244 238 231 225 224 224 223 222 221 220 220 221 221 220 220 220 221 221 221 221 221 220 219 217 216 214 214 214 216 217 218 219 219 220 221 222 223 223 223 223 223 222 222 223 223 223 222 221 220
322 322 322 321 321 321 321 321 321 322 322 323 323 322 321 321 321 321 320 316 311 306 304 301 298 295 293 291 287 284 280 275 269 262 256 250 244 238 232 226 222 222 222 222 222 222 222 222 222 222 221 221 222 221 220 219 218 218 217 215 213 212 213 214 215 217 218 218 218 219 220 221 222 223 223 223 223 222 222 222 223 222 221 219 218
321 321 321 321 321 321 320 320 320 321 321 321 322 321 321 320 319 319 319 316 312 307 304 302 299 295 292 291 289 285 281 275 269 262 255 249 244 238 232 226 222 220 220 220 221 222 223 223 223 222 222 222 222 221 220 218 218 218 217 215 213 212 213 214 216 217 219 219 219 220 220 221 222 223 223 222 222 221 221 221 221 221 219 217 216
321 321 321 321 320 320 320 319 320 320 320 320 320 320 319 318 317 317 317 315 312 308 304 302 299 295 292 290 288 286 282 276 270 263 255 249 244 239 233 227 222 219 218 218 220 221 222 223 223 222 222 221 221 220 218 217 216 217 217 215 214 213 213 215 216 217 218 219 220 220 221 222 222 222 222 221 221 221 220 219 218 218 217 215 215
322 321 321 321 320 320 319 319 319 319 319 319 319 319 318 317 316 315 315 315 312 308 304 301 298 295 291 288 286 284 282 278 272 264 256 249 243 239 234 228 223 220 217 217 218 220 221 222 223 223 222 221 220 219 218 216 215 215 216 215 214 214 215 216 217 218 218 218 219 220 221 222 222 221 221 220 220 220 220 218 216 215 214 213 214
322 322 321 320 320 320 319 319 318 318 318 318 318 317 317 316 315 314 313 313 311 308 304 300 297 294 290 286 284 282 280 277 272 266 258 250 243 238 234 230 225 220 218 216 217 218 219 221 222 223 223 222 221 219 218 217 216 215 216 216 215 215 216 217 217 217 217 217 218 220 222 223 223 222 221 220 220 220 219 218 214 212 212 212 213
322 322 321 321 320 320 319 319 318 317 316 316 316 316 316 315 314 312 311 311 310 308 304 300 297 294 290 286 282 279 277 275 272 267 260 252 243 237 234 231 227 223 219 217 216 217 218 219 221 222 222 222 221 220 218 217 216 216 216 216 216 216 216 217 217 217 217 217 217 219 221 223 224 223 222 221 220 220 219 217 214 211 210 210 211
323 323 322 322 321 321 320 319 318 317 316 315 315 314 314 314 313 312 310 309 309 307 304 301 297 293 290 286 282 278 276 273 271 267 261 254 246 238 232 230 229 225 221 218 216 216 217 218 219 221 222 222 221 221 219 218 217 217 216 216 216 217 217 218 218 217 217 216 217 218 219 221 222 223 223 222 221 220 218 216 213 210 209 209 210
324 324 324 323 323 322 322 320 319 318 316 315 314 314 313 313 312 311 309 308 307 306 304 301 297 293 291 288 283 279 275 272 269 267 262 256 248 240 233 229 228 227 224 220 217 216 216 217 219 220 221 221 221 221 220 219 218 217 217 216 216 217 218 219 219 218 217 217 217 217 218 219 220 221 222 221 221 220 218 215 212 210 209 209 209
326 326 325 325 325 324 323 322 321 319 317 315 313 312 312 312 311 310 309 307 306 305 304 301 298 294 290 287 284 280 276 272 268 266 262 257 250 243 236 230 228 227 226 223 219 216 215 216 217 219 220 221 221 220 220 220 219 218 217 216 216 216 217 218 218 218 217 217 217 218 218 219 219 220 220 220 220 220 218 215 212 210 208 208 208
329 327 327 326 326 326 326 325 323 321 319 317 314 312 311 310 310 309 308 306 304 303 302 300 298 294 290 286 283 279 275 271 268 265 262 258 252 245 238 232 228 226 225 224 222 219 216 215 215 217 219 220 220 220 220 220 220 219 218 216 215 215 216 217 218 218 217 217 217 217 218 218 219 219 219 219 219 219 218 215 212 210 209 208 207
332 330 328 328 328 328 328 327 326 324 322 319 317 314 311 309 308 307 307 305 303 301 300 298 297 294 289 285 282 278 274 271 267 264 261 258 253 248 241 235 230 226 225 224 223 221 218 216 215 215 216 218 220 220 220 220 220 219 218 217 216 215 215 216 216 217 217 217 217 217 217 218 218 219 219 219 218 218 217 215 213 211 210 208 207
336 334 331 329 329 329 329 329 328 327 325 322 320 316 313 310 308 306 305 304 302 301 298 296 295 293 290 285 281 277 274 270 266 263 260 257 254 249 244 238 232 227 225 224 222 221 220 218 217 215 215 216 218 219 219 220 220 220 219 218 217 216 216 216 216 216 217 217 217 217 217 218 218 218 218 219 218 217 216 215 213 211 210 209 208
339 337 335 332 330 329 329 329 329 328 327 325 323 320 317 313 309 306 304 302 301 299 297 295 292 291 289 286 281 277 273 269 265 262 259 256 254 250 245 240 234 229 226 224 222 221 220 219 219 217 216 215 216 217 218 218 219 220 220 219 218 217 217 216 216 216 216 217 217 217 217 217 217 217 217 217 217 217 215 214 213 212 211 210 209
343 341 339 336 333 331 329 329 329 329 329 328 326 324 321 317 313 308 304 300 298 298 296 294 291 289 288 286 282 277 274 270 265 261 257 255 253 250 246 241 236 231 227 224 222 221 220 219 219 219 217 216 215 216 216 216 217 218 219 220 219 219 218 217 217 216 216 216 216 217 217 217 217 217 217 217 216 216 215 214 213 212 211 211 210